Temp
52 52 52 52 53 52 52 53 53 53 53 54 54 55 55 55 54 55 60 62 57 55 61 66 69 64 66 62 50 60 67 73 73 65 66 68 68 72 69 71 70 68 66 66 68 64 60 85 84 74 74 80 80 74
52 52 52 52 52 52 52 52 52 53 53 54 54 54 54 54 54 54 57 64 64 53 59 65 68 71 70 70 66 62 58 63 70 65 69 71 66 68 61 62 74 60 67 67 66 64 75 80 77 81 81 78 78 74
51 51 52 52 52 52 52 52 52 53 53 53 53 53 54 54 53 53 55 58 57 56 62 67 69 78 80 78 80 61 65 61 57 72 69 68 60 61 57 54 59 64 64 60 65 71 66 76 79 81 82 79 78 79
51 51 51 52 51 51 52 52 52 52 52 53 53 53 53 53 53 53 54 58 56 58 54 67 80 74 81 80 77 76 72 73 72 74 69 65 62 66 62 62 64 65 66 65 61 63 61 71 80 79 79 80 79 80
51 51 51 51 51 52 52 52 52 52 53 53 53 53 53 53 52 55 59 60 58 52 50 58 69 77 80 77 74 75 72 69 70 69 67 65 69 66 68 67 67 72 66 59 64 63 61 62 76 79 76 76 77 75
50 51 51 51 51 51 52 52 52 52 52 52 52 52 52 52 52 55 51 61 65 62 51 53 73 72 74 74 72 71 72 70 71 69 67 70 72 67 61 61 69 64 60 66 64 70 67 66 64 61 74 74 74 73
51 51 51 51 51 51 52 52 52 52 52 52 52 52 51 51 55 52 47 54 57 63 51 51 59 72 74 73 72 71 73 71 71 69 66 68 68 67 63 59 69 70 71 68 67 68 66 69 63 68 72 74 71 74
50 50 50 51 51 51 51 51 51 52 52 52 51 51 51 52 51 54 61 55 58 55 52 47 55 62 74 64 65 74 69 70 69 68 69 64 67 65 59 66 70 72 69 70 69 67 67 65 72 74 74 73 69 69
50 50 50 51 51 51 51 51 51 51 51 51 52 53 56 55 52 54 57 56 61 53 46 53 51 46 71 65 66 67 71 63 72 64 65 66 63 51 63 65 67 70 69 71 71 60 63 57 61 71 73 71 69 67
50 50 50 50 51 51 51 51 51 51 51 52 55 54 49 59 56 56 57 50 51 53 54 52 64 57 66 63 59 58 66 60 57 65 71 64 61 69 70 71 71 71 72 73 72 71 73 69 67 71 69 69 69 66
50 50 50 50 51 51 51 51 51 50 52 62 59 54 62 58 61 55 46 45 49 48 54 58 59 54 65 54 56 61 56 61 53 61 61 59 59 66 72 73 73 72 71 73 77 77 78 74 72 70 69 69 68 67
50 50 50 50 50 50 51 51 51 55 58 52 50 56 64 56 51 46 47 52 51 47 56 53 55 59 59 63 55 58 53 57 50 67 60 56 65 72 74 74 74 73 73 74 77 76 77 75 73 72 71 67 67 69
50 50 50 50 50 50 50 50 51 51 52 59 53 49 54 52 38 43 41 49 48 57 58 57 52 57 55 59 52 52 50 52 65 56 56 62 67 73 74 76 75 76 76 77 78 79 79 74 75 72 68 65 67 67
50 50 50 50 50 50 50 50 51 53 53 54 46 34 43 43 47 52 51 53 58 62 58 58 55 51 54 50 54 46 55 57 50 49 53 53 58 60 71 77 75 71 76 77 78 75 72 71 71 71 69 65 65 65
50 50 50 50 50 51 51 51 51 56 56 53 55 38 49 58 58 58 58 57 61 64 58 57 55 53 52 50 52 51 49 48 52 48 52 53 57 60 65 67 69 74 69 74 73 73 71 69 65 64 61 64 61 60
50 50 52 52 52 52 51 53 56 58 60 55 53 53 60 58 54 56 55 56 61 61 61 55 48 43 46 50 46 46 49 43 44 52 55 55 55 57 63 68 70 68 70 70 70 66 63 62 59 57 58 57 58 58
48 53 52 52 52 51 51 53 61 54 54 51 55 63 62 61 55 55 55 56 63 59 48 46 38 38 46 46 49 53 46 46 50 55 55 58 59 61 63 64 65 65 64 63 61 61 59 57 56 54 51 52 53 54
52 53 51 52 52 56 59 56 58 54 47 54 54 61 63 63 58 58 60 60 58 52 53 43 45 41 41 41 44 47 50 56 61 57 56 58 58 61 61 59 59 58 58 58 56 55 54 54 52 50 50 51 51 51
54 53 51 51 53 52 56 56 59 49 53 59 62 64 64 63 62 60 60 58 56 51 45 44 42 42 44 48 48 50 51 52 51 56 57 59 59 55 55 56 56 55 53 53 53 53 52 52 51 51 51 51 51 52
51 51 51 51 51 54 49 53 61 53 51 56 62 61 59 55 55 49 47 48 46 46 42 42 44 46 46 48 49 48 50 51 50 50 52 53 54 53 52 52 51 52 51 51 51 50 51 52 53 54 54 53 53 55
49 52 51 54 56 57 55 55 55 57 57 56 59 54 48 44 43 44 46 49 46 45 44 47 47 48 50 49 50 50 51 53 51 51 51 51 52 52 51 51 52 51 50 50 50 50 52 53 54 56 54 55 60 62
54 51 58 56 54 53 52 59 55 57 54 54 49 41 39 40 42 44 47 45 44 45 47 47 47 48 48 48 49 51 52 53 54 51 50 50 50 50 50 51 52 51 52 52 53 53 52 54 55 57 57 61 59 63
51 55 57 56 48 43 42 60 47 47 40 39 39 37 39 42 43 48 42 44 45 47 47 49 48 48 48 49 50 50 52 53 51 51 52 52 52 52 51 51 52 52 51 52 56 54 54 48 52 61 61 58 59 65
50 53 48 48 48 40 51 45 47 40 39 37 36 37 39 41 46 41 37 38 43 46 46 46 48 48 49 49 49 49 50 52 51 51 51 50 49 50 51 50 50 51 53 54 58 58 54 52 49 53 54 59 62 61
41 39 44 32 46 41 38 38 37 37 35 37 37 39 41 45 39 36 35 38 43 44 46 47 47 47 47 48 49 50 52 51 50 49 51 51 51 51 50 50 51 51 54 54 55 55 55 53 52 53 56 59 62 62
34 42 38 41 39 36 37 35 35 36 37 40 42 47 47 41 36 33 36 40 42 44 46 47 46 47 48 49 50 49 50 53 55 51 51 53 53 51 50 50 49 51 55 54 53 53 52 55 61 62 61 58 49 59
34 37 44 47 42 39 37 38 38 37 42 43 46 45 42 35 34 38 43 45 45 48 50 51 54 64 63 63 64 63 62 63 59 57 57 59 61 61 62 61 60 61 62 64 63 62 60 61 63 63 64 65 64 64
38 36 34 37 37 38 37 39 42 44 48 55 52 41 40 40 38 46 50 51 51 55 58 67 70 71 71 70 71 70 70 70 70 70 70 69 69 68 68 68 67 49 63 63 68 68 67 66 65 65 65 64 65 67
36 39 38 37 42 43 47 46 47 53 57 54 49 48 48 55 58 56 59 65 69 68 67 70 71 73 72 73 73 74 73 72 67 63 62 62 63 66 70 70 69 69 68 66 43 54 60 62 64 64 65 66 67 67
47 50 47 47 45 44 51 56 55 60 62 61 61 59 58 59 64 67 69 71 70 69 71 72 73 72 70 69 68 69 73 73 72 68 64 64 66 71 71 70 70 71 70 69 67 65 49 59 56 64 63 67 66 63
51 54 51 51 48 53 59 63 64 64 64 62 64 60 60 61 64 71 72 73 73 73 71 70 70 71 70 70 68 67 66 70 70 70 71 72 72 71 71 71 71 71 71 70 69 69 68 67 68 66 66 64 63 61
55 53 52 49 51 58 63 62 62 60 60 59 60 63 62 62 57 65 72 73 71 70 62 69 69 70 73 73 72 71 58 70 70 69 69 70 71 71 74 74 73 72 71 70 70 70 69 68 67 66 64 63 63 62
59 59 57 55 53 55 61 60 58 58 58 58 58 61 62 61 56 66 74 75 72 71 71 72 72 73 72 73 72 70 65 70 60 49 51 48 44 51 65 71 70 70 69 68 69 68 67 63 61 59 58 58 58 56
MSLP
1025.72 1025.58 1025.39 1025.10 1024.79 1024.60 1024.32 1024.07 1023.78 1023.49 1023.14 1022.80 1022.36 1021.96 1021.55 1021.18 1020.81 1020.12 1018.09 1018.04 1017.65 1015.45 1012.41 1011.25 1010.43 1009.81 1008.94 1008.61 1008.38 1007.54 1005.44 1003.43 1002.67 1002.55 1001.70 1000.80 999.95 999.15 998.93 998.66 998.64 999.30 999.62 999.82 999.91 999.37 998.49 997.89 997.79 998.45 999.67 999.93 1000.39 1001.89
1025.52 1025.39 1025.25 1025.02 1024.77 1024.48 1024.18 1023.90 1023.61 1023.30 1023.03 1022.64 1022.24 1021.88 1021.54 1021.25 1020.97 1020.57 1018.49 1017.77 1017.70 1017.03 1013.12 1012.06 1010.85 1009.94 1009.72 1009.45 1008.95 1008.05 1007.54 1006.35 1004.33 1003.16 1002.50 1001.56 1001.24 1000.92 1001.13 1000.32 1000.46 1001.72 1001.93 1001.15 1001.28 1000.76 1000.06 999.55 999.54 999.94 1000.15 1000.64 1001.57 1002.68
1025.27 1025.20 1025.05 1024.84 1024.61 1024.33 1024.03 1023.72 1023.39 1023.06 1022.76 1022.41 1022.03 1021.69 1021.41 1021.16 1020.96 1020.80 1019.53 1018.75 1017.91 1015.61 1012.28 1010.01 1008.42 1006.93 1008.17 1008.42 1008.32 1008.26 1007.81 1008.09 1007.29 1005.82 1004.42 1003.51 1003.25 1003.88 1002.79 1003.46 1003.43 1003.88 1004.01 1004.05 1003.07 1002.51 1002.41 1001.66 1001.03 1000.54 1000.96 1001.70 1002.54 1003.39
1025.11 1024.96 1024.83 1024.63 1024.44 1024.18 1023.85 1023.46 1023.14 1022.80 1022.46 1022.04 1021.72 1021.39 1021.14 1020.85 1020.70 1020.59 1019.45 1018.73 1018.38 1015.98 1012.69 1008.06 1007.28 1007.48 1007.39 1007.68 1007.68 1007.74 1007.64 1007.42 1006.89 1005.81 1004.90 1004.31 1004.60 1005.29 1004.40 1004.79 1004.42 1004.37 1004.62 1004.38 1004.21 1004.26 1004.35 1002.91 1001.93 1001.55 1002.14 1002.80 1003.39 1004.09
1024.79 1024.70 1024.51 1024.36 1024.17 1023.86 1023.51 1023.18 1022.84 1022.48 1022.08 1021.69 1021.29 1020.95 1020.75 1020.55 1020.36 1019.98 1018.76 1018.39 1018.52 1017.76 1014.35 1010.87 1009.07 1007.45 1007.18 1007.47 1007.62 1007.47 1007.26 1007.25 1006.43 1005.16 1004.74 1004.68 1004.60 1005.12 1004.95 1004.93 1004.33 1004.40 1004.85 1005.12 1004.26 1004.70 1005.00 1004.78 1003.22 1003.62 1003.54 1004.03 1004.63 1005.32
1024.47 1024.35 1024.24 1024.06 1023.86 1023.59 1023.27 1022.93 1022.55 1022.15 1021.76 1021.35 1020.92 1020.57 1020.34 1020.14 1020.02 1019.12 1017.85 1017.24 1017.10 1017.22 1015.82 1011.77 1008.00 1007.33 1007.38 1007.48 1007.52 1007.46 1007.18 1007.17 1006.56 1005.52 1005.41 1005.21 1005.42 1006.22 1005.34 1004.51 1004.89 1005.67 1006.45 1006.45 1006.01 1005.65 1005.87 1005.87 1005.81 1006.75 1004.91 1005.72 1006.12 1006.49
1024.07 1024.05 1023.97 1023.81 1023.54 1023.26 1022.91 1022.52 1022.12 1021.69 1021.22 1020.79 1020.37 1019.98 1019.72 1019.65 1019.32 1018.56 1018.68 1018.24 1017.81 1017.29 1016.06 1012.77 1008.80 1007.21 1007.12 1007.10 1007.00 1006.99 1006.84 1006.44 1006.29 1005.64 1005.58 1005.61 1005.68 1006.12 1005.47 1004.74 1004.74 1005.17 1005.95 1006.62 1006.76 1006.59 1006.54 1006.42 1006.41 1006.78 1006.51 1006.29 1006.52 1007.12
1023.67 1023.70 1023.67 1023.55 1023.31 1023.01 1022.63 1022.17 1021.65 1021.15 1020.68 1020.22 1019.79 1019.37 1019.14 1019.16 1019.34 1018.24 1017.25 1018.13 1017.87 1017.25 1016.36 1013.48 1009.62 1007.70 1006.93 1006.78 1006.03 1006.26 1006.07 1006.06 1005.79 1005.33 1005.29 1005.49 1005.42 1006.01 1004.85 1004.83 1004.90 1004.93 1005.66 1005.66 1005.99 1006.87 1006.89 1006.70 1006.67 1006.02 1006.42 1007.21 1007.62 1008.18
1023.32 1023.36 1023.34 1023.21 1023.02 1022.74 1022.37 1021.87 1021.21 1020.56 1020.03 1019.58 1019.28 1018.96 1018.60 1018.47 1017.77 1017.33 1017.55 1017.88 1017.62 1017.51 1015.43 1012.92 1010.12 1009.07 1007.30 1007.16 1007.00 1006.55 1005.69 1005.08 1004.79 1004.68 1004.59 1004.85 1004.65 1005.27 1004.74 1004.72 1004.72 1004.85 1005.11 1004.85 1004.98 1006.06 1007.35 1007.10 1007.41 1006.35 1006.65 1007.42 1008.10 1009.15
1022.92 1022.93 1022.96 1022.89 1022.73 1022.49 1022.15 1021.61 1020.83 1019.94 1019.06 1018.71 1018.66 1018.11 1017.04 1016.45 1017.10 1017.50 1017.60 1017.21 1016.98 1016.07 1015.07 1012.61 1010.33 1009.21 1008.54 1007.84 1007.71 1007.75 1006.14 1005.34 1004.31 1003.70 1003.42 1003.65 1003.37 1003.43 1003.97 1004.10 1004.33 1004.58 1004.62 1004.43 1003.98 1004.50 1004.91 1006.28 1006.00 1006.43 1007.04 1008.06 1008.50 1009.32
1022.48 1022.57 1022.58 1022.55 1022.42 1022.24 1021.95 1021.50 1020.77 1019.76 1017.68 1017.28 1016.70 1016.60 1016.14 1016.37 1016.41 1016.08 1016.17 1015.93 1014.85 1013.95 1013.19 1012.01 1011.02 1010.26 1009.58 1009.28 1008.81 1008.54 1007.31 1005.75 1004.24 1003.03 1002.56 1002.50 1001.97 1002.35 1002.76 1002.86 1003.42 1003.97 1004.36 1003.90 1003.58 1003.88 1003.93 1004.87 1005.62 1006.26 1007.12 1007.89 1008.86 1009.81
1022.00 1022.15 1022.21 1022.22 1022.14 1021.98 1021.77 1021.46 1021.04 1019.75 1019.03 1019.67 1019.58 1018.00 1016.18 1015.75 1015.51 1015.26 1014.27 1013.47 1012.81 1012.12 1011.54 1011.28 1011.19 1011.01 1010.56 1010.28 1009.67 1008.76 1007.83 1006.09 1004.29 1002.81 1002.23 1001.52 1001.38 1001.02 1001.24 1001.54 1002.28 1002.91 1003.40 1003.76 1003.34 1003.72 1004.08 1004.25 1005.29 1006.38 1007.49 1008.86 1009.74 1010.16
1021.54 1021.70 1021.82 1021.90 1021.84 1021.70 1021.57 1021.34 1020.98 1020.65 1020.05 1018.30 1018.42 1017.31 1015.35 1014.91 1014.64 1013.61 1012.66 1011.60 1011.33 1011.25 1011.01 1011.19 1011.24 1011.26 1011.04 1010.68 1010.14 1009.28 1007.79 1005.99 1004.56 1003.76 1002.53 1001.60 1001.24 1000.95 1000.91 1000.71 1001.39 1002.18 1002.59 1002.86 1002.98 1003.33 1003.86 1004.79 1005.90 1007.23 1008.12 1009.03 1009.87 1010.42
1021.08 1021.29 1021.43 1021.52 1021.45 1021.37 1021.27 1021.07 1020.69 1020.06 1019.22 1016.69 1016.72 1016.29 1015.03 1013.78 1013.19 1011.97 1011.63 1011.27 1011.01 1010.80 1010.95 1010.90 1011.02 1011.29 1010.88 1010.78 1009.72 1009.05 1007.51 1006.50 1005.35 1004.23 1003.46 1004.37 1004.06 1002.87 1001.71 1000.93 1000.89 1001.57 1002.00 1002.25 1002.65 1003.45 1004.59 1005.48 1006.65 1007.58 1008.56 1009.37 1010.37 1011.22
1020.67 1020.93 1021.06 1021.09 1020.98 1020.93 1020.90 1020.66 1020.46 1019.80 1017.75 1015.72 1014.71 1014.22 1012.62 1011.69 1011.82 1011.79 1011.81 1011.48 1011.02 1010.98 1011.12 1011.19 1011.22 1011.26 1010.66 1010.37 1009.65 1008.87 1007.63 1006.37 1005.39 1005.47 1005.95 1005.86 1005.36 1004.93 1003.56 1002.56 1002.20 1001.70 1002.37 1002.30 1002.83 1004.03 1005.55 1006.67 1008.34 1009.15 1009.79 1010.61 1011.51 1012.15
1020.41 1020.76 1020.26 1020.30 1020.39 1020.51 1020.48 1020.10 1019.46 1018.77 1016.35 1015.50 1014.54 1012.69 1011.01 1010.89 1011.77 1011.86 1012.03 1011.49 1011.62 1011.22 1011.40 1011.97 1012.28 1012.12 1011.20 1010.31 1009.46 1008.59 1007.56 1007.59 1007.61 1007.30 1006.97 1006.66 1006.20 1005.24 1004.58 1004.12 1003.23 1003.12 1003.53 1004.06 1004.83 1006.30 1007.38 1008.50 1009.74 1010.48 1011.48 1012.16 1012.65 1013.23
1020.31 1019.45 1019.55 1019.93 1020.15 1020.28 1020.19 1019.74 1016.98 1016.83 1016.07 1015.03 1012.82 1011.63 1011.20 1010.75 1011.66 1011.99 1012.15 1011.94 1011.84 1011.86 1012.34 1013.19 1013.38 1013.04 1012.37 1010.75 1009.04 1008.37 1008.64 1008.81 1008.09 1007.55 1007.34 1007.02 1006.70 1006.09 1005.48 1005.28 1005.12 1005.22 1005.65 1006.36 1007.31 1008.31 1009.11 1010.23 1011.12 1011.98 1012.79 1013.43 1013.69 1014.04
1019.23 1019.28 1019.82 1020.01 1020.05 1019.10 1018.39 1018.55 1016.41 1016.05 1015.38 1014.12 1012.60 1011.15 1011.01 1011.06 1011.59 1011.92 1012.24 1012.13 1012.43 1012.86 1013.47 1014.00 1013.89 1013.15 1012.21 1011.22 1010.34 1010.19 1009.78 1009.13 1008.31 1008.04 1007.65 1007.16 1006.58 1006.20 1006.33 1006.77 1007.07 1007.45 1007.82 1008.48 1009.21 1009.99 1010.77 1011.71 1012.50 1013.29 1013.78 1014.26 1014.87 1015.23
1018.75 1019.23 1019.86 1019.99 1019.87 1019.41 1017.16 1017.05 1016.34 1015.30 1014.16 1012.86 1012.21 1011.81 1011.47 1011.51 1012.22 1012.90 1012.98 1013.18 1013.76 1014.43 1014.73 1014.31 1013.64 1012.62 1011.90 1011.39 1011.17 1010.75 1010.22 1009.75 1009.18 1008.49 1007.92 1007.32 1007.20 1007.17 1007.62 1008.09 1008.40 1008.83 1009.23 1009.99 1010.69 1011.47 1012.29 1012.96 1013.58 1014.15 1014.68 1015.11 1015.64 1016.24
1019.37 1019.79 1019.95 1019.98 1019.98 1018.28 1017.32 1016.68 1016.38 1015.39 1014.05 1013.17 1012.65 1012.25 1012.72 1013.57 1014.20 1014.38 1014.30 1014.24 1014.47 1014.54 1014.47 1013.93 1013.11 1012.69 1012.46 1011.97 1011.52 1010.94 1010.25 1009.53 1009.02 1008.49 1008.07 1008.10 1008.34 1008.35 1008.92 1009.33 1009.70 1010.30 1010.90 1011.56 1012.19 1012.65 1013.32 1014.13 1014.74 1015.14 1015.47 1015.85 1016.20 1016.34
1019.79 1019.67 1019.95 1019.79 1018.67 1017.95 1017.02 1015.91 1015.26 1014.69 1014.20 1013.65 1013.45 1014.55 1015.24 1015.58 1015.26 1015.04 1014.68 1014.62 1014.37 1014.19 1014.00 1013.50 1013.26 1012.87 1012.37 1011.85 1011.27 1010.57 1009.62 1008.81 1008.50 1008.45 1008.63 1009.05 1009.63 1009.85 1010.50 1010.96 1011.30 1011.73 1012.19 1012.97 1013.50 1014.25 1014.59 1014.90 1015.26 1015.59 1015.87 1016.06 1015.85 1015.77
1019.18 1019.62 1018.88 1018.83 1018.01 1017.77 1017.26 1016.15 1015.60 1015.43 1015.36 1014.72 1015.76 1016.76 1016.50 1016.26 1015.86 1015.70 1015.54 1015.06 1014.85 1014.83 1014.28 1013.73 1013.25 1012.95 1012.52 1011.92 1011.18 1010.54 1010.05 1009.72 1009.65 1009.77 1010.01 1010.34 1010.90 1011.41 1011.94 1012.41 1012.64 1013.23 1013.69 1014.09 1014.49 1014.84 1015.37 1015.63 1015.64 1015.58 1015.58 1015.50 1015.53 1015.65
1019.38 1018.93 1018.00 1018.05 1017.97 1018.01 1017.38 1016.13 1016.42 1016.66 1016.84 1017.01 1017.39 1017.18 1016.87 1016.59 1016.47 1016.10 1016.24 1016.46 1015.94 1015.44 1014.52 1013.81 1013.70 1013.33 1012.84 1012.24 1011.61 1011.26 1011.08 1010.80 1010.73 1010.93 1011.23 1011.70 1012.27 1012.74 1013.21 1013.71 1014.00 1014.19 1014.55 1014.92 1015.06 1015.56 1016.08 1016.36 1016.24 1015.85 1015.71 1015.75 1015.63 1015.72
1018.92 1018.32 1017.92 1017.67 1017.73 1017.92 1017.42 1017.09 1017.43 1017.81 1017.89 1017.76 1017.55 1017.29 1017.22 1017.15 1017.26 1017.36 1017.68 1017.58 1016.87 1015.86 1015.05 1014.66 1014.05 1013.49 1013.00 1012.57 1012.41 1012.30 1012.29 1012.01 1012.01 1012.35 1012.71 1012.98 1013.53 1014.11 1014.50 1014.93 1015.20 1015.48 1015.62 1015.78 1015.90 1016.42 1016.77 1016.88 1016.75 1016.73 1016.60 1016.40 1016.31 1016.45
1019.29 1019.55 1018.88 1018.78 1018.44 1018.36 1018.34 1018.21 1018.28 1018.21 1017.94 1017.60 1017.23 1017.02 1017.31 1017.50 1017.73 1018.44 1018.76 1018.44 1017.30 1016.50 1015.82 1015.21 1014.64 1014.20 1013.84 1013.49 1013.26 1013.17 1013.32 1013.15 1013.21 1013.57 1014.11 1014.15 1014.55 1014.94 1015.39 1015.77 1016.10 1016.34 1016.42 1016.35 1016.64 1016.91 1017.24 1017.28 1017.25 1017.21 1017.15 1016.80 1016.71 1016.75
1019.49 1019.21 1019.17 1018.86 1019.08 1019.04 1018.87 1018.64 1018.38 1018.03 1017.48 1016.86 1016.71 1016.61 1017.04 1017.72 1018.47 1019.36 1019.85 1019.32 1018.36 1017.47 1016.72 1016.02 1015.28 1014.53 1013.99 1013.95 1014.00 1014.10 1014.35 1014.12 1014.09 1014.41 1015.05 1014.96 1015.09 1015.40 1015.81 1016.07 1016.47 1016.92 1016.92 1016.90 1016.97 1017.23 1017.21 1017.35 1017.01 1017.16 1017.41 1017.59 1017.55 1017.40
1019.83 1019.59 1019.29 1019.54 1019.45 1019.40 1019.08 1018.62 1018.23 1017.54 1016.35 1015.67 1015.62 1016.27 1017.07 1017.91 1018.94 1019.72 1019.88 1019.36 1018.62 1017.46 1016.46 1015.25 1014.89 1013.57 1013.49 1013.47 1013.58 1013.84 1013.93 1013.97 1014.29 1014.78 1015.25 1015.27 1015.31 1015.37 1015.30 1015.46 1015.79 1016.07 1016.39 1016.41 1016.53 1016.80 1016.97 1017.11 1017.11 1017.18 1017.14 1017.07 1017.16 1017.22
1020.27 1020.14 1019.69 1019.48 1019.31 1018.99 1018.30 1017.54 1016.74 1015.99 1015.06 1014.48 1015.10 1016.11 1016.61 1017.51 1018.65 1018.92 1018.83 1018.57 1017.49 1016.46 1015.57 1014.48 1013.98 1013.57 1013.20 1013.14 1013.33 1013.55 1013.76 1013.89 1014.12 1014.24 1014.56 1014.96 1015.27 1015.46 1015.62 1015.84 1016.09 1016.27 1016.62 1016.68 1016.39 1016.53 1016.65 1016.78 1016.93 1017.03 1017.06 1016.94 1016.91 1016.90
1019.80 1019.41 1019.29 1018.62 1018.00 1017.64 1016.74 1016.43 1015.97 1015.44 1014.99 1014.89 1015.12 1015.48 1016.29 1016.77 1017.11 1017.38 1017.16 1016.47 1015.65 1015.04 1013.99 1013.41 1013.46 1013.52 1013.56 1013.41 1013.35 1013.45 1013.58 1013.82 1014.05 1014.30 1014.56 1014.85 1015.17 1015.51 1015.65 1015.85 1016.11 1016.39 1016.68 1017.08 1017.50 1017.53 1017.71 1017.61 1017.55 1017.51 1017.24 1017.01 1016.88 1016.78
1017.86 1017.86 1017.31 1017.21 1016.90 1016.72 1016.31 1016.03 1015.72 1015.42 1015.14 1015.13 1015.17 1015.51 1015.82 1016.03 1015.92 1015.62 1015.08 1014.66 1014.46 1014.28 1013.86 1013.56 1013.58 1013.69 1013.94 1014.21 1014.43 1014.51 1014.53 1014.52 1014.64 1014.79 1014.94 1015.18 1015.37 1015.63 1015.82 1015.98 1016.14 1016.33 1016.53 1016.74 1017.08 1017.58 1017.85 1017.78 1017.55 1017.39 1017.24 1016.71 1016.67 1017.01
1017.43 1016.85 1016.81 1016.83 1016.80 1016.62 1016.01 1015.61 1015.39 1015.34 1015.36 1015.32 1015.25 1015.18 1015.26 1015.84 1015.64 1014.96 1014.51 1014.43 1014.34 1014.27 1014.30 1014.46 1014.61 1014.63 1014.62 1014.76 1014.99 1015.22 1015.55 1015.96 1016.14 1016.05 1015.88 1016.00 1016.19 1016.35 1016.41 1016.49 1016.60 1016.74 1016.80 1016.80 1016.72 1016.59 1016.95 1016.81 1016.75 1016.79 1016.77 1016.82 1017.00 1017.12
1016.96 1016.55 1016.32 1016.22 1016.38 1016.24 1015.57 1015.25 1015.15 1015.45 1015.75 1015.61 1015.36 1015.78 1015.64 1015.45 1015.80 1015.47 1014.92 1014.76 1014.75 1014.86 1015.18 1014.96 1015.06 1015.22 1015.26 1015.45 1015.96 1016.38 1016.55 1016.75 1016.89 1017.10 1017.10 1016.93 1017.01 1016.98 1016.63 1016.53 1016.58 1016.84 1016.79 1016.62 1016.45 1016.20 1016.26 1016.41 1016.52 1016.61 1016.76 1016.88 1017.00 1017.18
1015.77 1015.90 1016.14 1016.25 1016.28 1015.75 1015.59 1015.64 1015.72 1015.77 1015.98 1016.00 1016.17 1016.09 1016.04 1016.18 1016.43 1016.11 1015.86 1015.70 1015.66 1015.66 1015.70 1015.88 1015.91 1016.13 1016.31 1016.14 1016.30 1016.65 1016.90 1017.38 1017.78 1017.96 1018.14 1018.36 1018.57 1018.31 1017.86 1017.55 1017.65 1017.60 1017.43 1017.31 1016.99 1016.83 1016.93 1017.30 1017.57 1017.70 1017.88 1017.96 1018.16 1018.45
Wind_Speed
8 9 12 13 12 13 13 13 14 14 15 14 15 14 14 15 15 10 7 4 5 7 15 16 14 11 8 1 4 8 10 7 6 11 12 11 13 11 13 13 17 15 14 13 12 16 20 3 6 6 8 7 15 17
10 10 11 11 12 12 13 15 14 13 13 14 15 15 13 13 13 12 6 7 6 6 12 19 20 20 16 11 7 2 6 10 7 7 3 4 7 6 10 6 12 7 8 8 4 4 8 10 12 10 10 10 14 15
11 8 11 12 10 13 13 14 14 14 14 15 15 15 14 13 11 9 8 7 9 9 13 14 12 8 9 11 10 6 3 1 10 5 5 4 4 8 2 6 4 4 7 6 5 3 7 3 9 7 11 11 16 13
9 10 11 10 10 12 13 13 13 14 15 15 15 15 14 14 12 10 8 5 7 7 7 3 5 8 6 6 5 11 10 9 10 7 5 5 3 3 6 4 3 3 2 4 6 8 10 13 7 12 11 11 12 12
9 10 9 10 11 12 13 13 14 14 15 16 17 16 15 14 13 10 8 5 6 5 7 10 18 17 7 7 9 9 8 7 8 8 5 6 4 1 4 9 5 6 3 4 7 8 15 6 8 6 10 11 13 13
9 8 9 10 11 12 13 14 15 16 16 17 17 17 16 15 11 6 3 3 6 3 5 6 8 5 8 6 8 9 8 7 7 7 4 5 2 2 5 8 10 13 12 10 6 10 13 13 15 18 11 12 11 12
8 8 9 9 11 12 14 15 16 17 18 17 17 16 15 10 7 3 3 3 5 2 4 7 5 4 4 5 7 7 9 7 7 8 7 7 3 2 7 10 10 7 6 4 4 3 9 7 6 13 8 12 11 12
8 8 9 11 11 12 14 16 17 18 18 19 18 14 9 6 8 6 5 7 5 4 4 6 3 9 2 4 6 7 8 8 9 9 9 10 4 4 9 6 9 4 2 4 5 6 6 3 6 12 12 10 10 10
8 8 8 10 10 12 14 16 20 20 20 19 18 8 4 5 3 2 10 7 4 4 5 4 5 4 6 8 5 6 4 8 6 11 12 8 10 6 8 12 9 12 9 10 9 5 8 6 13 11 12 13 11 9
10 9 8 9 10 12 14 17 21 23 24 18 7 5 4 3 13 9 4 3 5 6 5 6 7 5 8 5 3 4 5 5 8 11 10 13 13 16 15 14 7 9 8 11 7 7 9 13 14 12 13 11 10 11
10 10 9 9 9 11 13 16 20 23 19 5 4 3 5 10 4 3 4 4 4 4 5 4 5 7 6 6 4 3 4 4 8 11 11 11 12 15 19 17 13 10 8 15 10 7 9 15 12 10 9 10 11 10
11 10 9 8 8 10 12 14 16 12 7 8 8 8 5 4 4 5 4 4 5 3 4 3 1 3 4 3 4 2 5 4 6 6 6 15 12 12 14 19 18 15 15 20 8 6 7 2 16 12 12 12 11 11
12 11 9 9 9 11 12 13 14 15 14 5 4 3 4 2 1 5 3 3 3 1 1 1 3 2 2 3 4 4 5 6 6 4 7 10 6 5 10 11 15 15 16 16 14 10 7 13 15 14 14 11 10 9
13 11 10 10 11 12 12 13 14 11 6 4 4 2 4 4 5 4 5 4 2 2 4 4 4 2 3 3 3 5 4 5 5 5 4 7 13 14 15 8 8 17 18 18 15 9 15 12 11 12 14 11 11 12
14 11 10 12 14 13 12 13 12 8 6 3 4 3 9 7 3 5 5 7 6 3 5 6 5 3 4 4 4 4 5 5 2 5 4 5 10 10 12 9 11 4 3 5 10 14 14 15 13 13 11 12 10 11
13 9 13 14 11 9 10 12 11 8 3 4 4 7 7 4 3 2 3 4 4 6 5 1 4 3 4 5 3 6 5 5 4 6 5 5 9 12 11 9 4 9 11 12 14 15 15 15 14 14 12 10 10 10
13 3 9 9 6 7 11 6 4 3 4 5 6 7 7 3 3 3 3 5 4 5 2 2 2 4 5 6 4 2 5 5 7 6 5 8 9 9 6 5 9 12 13 14 14 14 15 15 15 14 12 9 11 12
7 8 7 5 4 7 6 6 4 4 6 7 8 6 7 4 1 3 2 4 5 3 1 2 3 4 4 4 4 4 7 10 12 9 7 8 5 3 7 10 10 12 13 14 14 14 14 14 13 10 14 14 13 12
5 8 9 3 4 5 2 3 4 4 5 7 5 5 4 4 6 8 6 6 5 2 1 3 5 3 2 2 8 9 9 9 9 10 9 6 7 8 9 10 11 13 14 14 14 10 10 12 11 9 10 9 9 7
14 9 5 2 4 4 1 2 2 5 5 4 6 3 6 5 7 5 5 3 1 2 4 4 3 3 4 7 7 8 9 9 8 6 4 5 6 10 11 10 9 13 12 14 12 14 12 10 8 8 7 7 6 7
6 6 4 4 6 4 4 3 3 3 5 5 9 8 5 4 3 2 3 3 2 1 2 2 4 7 7 6 6 6 7 3 5 4 6 8 8 10 10 9 12 11 12 10 11 8 7 5 6 6 6 6 7 5
6 9 3 4 3 2 4 3 4 6 4 5 6 4 2 3 3 3 4 2 3 2 3 4 4 4 4 6 6 6 7 8 10 10 12 12 11 10 10 9 10 10 8 7 7 7 7 5 4 3 5 6 5 6
7 5 4 2 2 0 6 4 3 3 3 3 3 3 2 2 4 5 3 5 4 5 7 4 4 4 4 6 9 11 10 10 8 9 10 10 10 9 9 9 8 9 9 6 8 8 7 5 6 6 4 3 3 7
3 3 2 2 2 2 4 1 3 2 2 2 2 2 3 3 3 4 4 5 7 7 8 8 4 4 7 10 8 8 7 8 10 10 9 11 10 9 9 8 8 7 7 6 8 8 6 5 7 7 6 7 6 6
1 4 1 2 2 2 2 3 1 1 2 2 0 1 3 3 3 3 5 7 9 9 8 7 8 7 8 9 9 9 10 8 9 10 8 10 10 9 9 8 7 6 4 7 8 8 6 4 3 2 4 0 7 6
3 1 1 2 2 2 2 2 2 2 2 0 2 3 3 4 4 5 5 8 6 5 6 5 5 4 5 3 7 8 5 6 9 9 6 7 8 9 7 7 5 2 1 5 6 6 4 4 3 8 5 4 3 5
2 1 2 4 2 1 2 3 2 3 3 2 3 4 4 5 4 2 2 4 4 4 5 6 4 7 10 10 8 7 5 6 7 6 6 5 5 5 5 7 8 6 8 7 6 7 6 6 4 3 2 1 3 2
2 1 2 1 2 3 3 2 2 5 4 3 4 3 3 4 2 3 5 4 8 9 9 5 6 8 8 8 9 9 10 10 10 11 11 10 9 8 8 8 7 13 9 9 4 6 5 4 3 1 1 3 3 4
3 3 3 3 3 2 3 5 5 6 10 10 10 7 4 3 6 7 7 7 4 5 5 7 8 8 9 8 9 9 9 9 10 14 14 10 9 8 7 7 7 7 6 8 11 9 9 8 7 5 5 4 2 4
3 4 1 7 4 6 7 7 10 10 9 10 9 10 8 7 7 7 7 5 5 5 5 8 9 9 10 11 11 12 11 10 10 9 9 9 9 8 7 7 7 7 6 7 8 7 3 5 6 7 6 4 8 10
2 10 16 13 12 10 10 10 10 10 10 10 9 8 10 10 3 1 6 7 7 8 9 10 10 10 11 10 9 10 10 9 11 12 9 8 8 7 6 6 6 5 5 5 5 3 3 4 4 6 6 5 6 7
7 10 10 14 11 7 6 8 10 10 10 7 9 11 8 11 11 7 8 7 8 8 9 10 9 10 9 9 9 9 13 10 10 10 15 9 7 7 4 3 4 3 3 4 4 6 7 9 10 11 11 12 12 12
9 11 10 10 7 6 7 6 7 7 9 9 9 7 8 9 8 6 5 6 7 8 7 8 8 7 6 8 8 8 9 8 8 6 6 6 7 8 8 9 8 8 10 9 10 11 12 18 15 17 16 13 12 12
Wind_Direction
313 323 333 332 338 336 336 338 337 333 329 333 337 339 345 347 347 335 318 34 306 297 291 286 308 304 300 31 358 329 283 208 211 222 237 237 245 246 249 260 209 206 212 227 247 238 245 98 163 238 90 97 81 77
297 301 321 323 330 330 329 325 325 335 336 331 334 334 338 337 341 332 290 354 336 265 284 315 279 264 261 282 278 310 320 321 309 342 312 306 315 352 355 252 181 240 326 295 2 359 38 64 87 113 112 108 100 102
329 307 310 313 320 326 331 326 329 329 330 329 326 326 327 329 332 332 311 321 287 259 266 248 253 242 222 233 251 263 142 260 314 352 323 328 23 343 331 30 319 52 47 324 333 50 13 159 118 124 118 112 115 117
311 310 313 321 323 321 319 320 325 325 322 320 320 320 319 317 319 313 292 307 292 289 278 232 127 226 231 276 262 258 274 292 290 279 316 295 306 319 318 88 321 15 320 281 304 323 334 313 122 110 118 119 113 117
302 301 307 316 318 321 321 322 320 318 318 317 316 314 313 314 313 295 270 261 239 294 316 312 310 264 241 234 246 260 261 267 281 292 285 277 310 241 269 303 268 8 323 317 311 45 217 294 96 126 119 118 106 111
290 297 300 305 314 318 323 323 319 317 314 311 308 306 307 305 298 273 274 186 214 236 295 289 348 233 215 226 241 240 232 230 256 277 306 296 100 284 278 257 246 87 32 5 5 49 71 66 57 0 86 103 106 105
283 292 302 310 312 318 317 318 319 318 315 313 309 304 299 289 249 259 350 353 324 278 272 290 309 184 212 215 213 223 224 245 231 250 225 249 269 230 259 262 294 49 91 48 1 346 95 129 142 181 135 116 119 116
264 278 291 305 314 317 322 322 320 316 314 314 312 308 297 232 259 270 182 208 282 280 250 269 278 227 184 240 232 190 213 207 237 242 240 225 226 237 249 270 281 272 256 246 34 338 259 291 223 147 132 131 119 126
258 268 282 303 311 318 322 321 319 316 313 311 313 300 225 229 214 159 125 159 230 275 289 276 293 2 323 1 12 258 266 241 213 221 238 239 225 198 249 253 273 262 268 249 169 116 282 159 258 146 141 143 142 141
252 259 273 293 308 318 324 325 322 317 310 309 273 205 208 131 121 140 178 198 209 187 232 260 296 289 318 340 51 326 269 256 247 237 226 217 236 239 218 247 243 239 252 282 255 241 163 165 167 168 139 156 149 159
247 254 266 282 301 316 324 328 328 323 295 200 241 67 50 142 211 222 206 231 203 224 210 246 292 323 311 318 335 292 289 271 254 251 238 237 230 224 231 229 201 205 246 268 248 267 227 169 168 163 135 156 144 183
236 245 255 271 290 307 318 327 330 318 6 326 298 266 253 186 227 239 221 223 225 224 198 229 219 310 293 335 275 250 256 280 261 277 266 228 242 232 227 214 213 212 217 226 215 202 259 168 147 158 151 159 156 175
224 233 245 260 279 296 308 316 317 307 293 228 221 257 273 224 313 241 226 211 192 213 147 288 290 277 266 236 238 263 245 246 316 274 265 259 336 225 218 228 201 206 227 237 216 203 229 131 140 156 146 144 156 168
217 224 238 258 273 284 295 302 310 309 272 215 188 264 246 196 242 257 322 333 55 283 312 314 303 211 229 235 247 259 252 279 255 238 234 12 344 345 350 247 207 196 213 222 214 154 126 121 129 143 142 130 145 151
208 220 234 254 260 271 283 295 293 281 270 265 257 233 216 211 177 342 341 298 353 328 327 324 293 263 255 251 228 287 253 246 290 14 34 350 311 313 320 345 313 192 276 123 111 110 115 121 119 121 110 128 129 132
193 228 229 240 254 275 286 277 258 242 263 271 266 251 266 87 346 359 296 319 359 319 328 45 356 315 277 269 221 230 256 50 327 326 329 338 334 315 303 284 323 63 84 95 105 115 115 117 122 109 110 115 117 115
179 251 135 185 215 257 263 263 228 194 272 242 241 230 257 304 67 333 315 299 304 304 348 38 278 255 314 251 249 332 27 330 304 329 343 328 325 300 264 120 75 90 98 96 109 114 110 114 115 114 109 97 94 87
207 155 158 180 257 239 210 217 245 218 235 244 258 343 17 347 203 19 332 348 328 30 58 280 308 237 237 280 319 350 325 313 317 329 321 313 313 279 124 109 103 102 106 104 108 109 116 122 117 114 111 106 98 101
190 152 170 192 305 290 188 223 268 271 245 290 301 275 285 15 24 6 335 357 29 55 280 246 251 240 257 295 325 314 301 300 295 302 297 311 104 95 97 93 105 103 102 110 114 112 113 111 112 113 115 118 126 143
98 119 154 203 273 269 217 260 228 272 283 344 294 334 18 20 344 327 303 297 222 203 209 229 254 348 312 306 298 288 287 282 272 278 285 92 90 91 89 93 94 101 97 97 94 99 107 112 119 129 137 155 164 187
200 130 184 236 210 273 308 277 241 288 326 299 26 30 345 334 314 312 309 341 248 297 285 313 326 312 303 304 298 287 283 340 62 75 97 93 88 94 93 90 93 95 99 107 112 108 106 105 128 144 164 201 202 136
106 189 229 176 261 184 263 262 305 345 292 1 39 356 296 304 319 14 309 332 1 294 273 283 293 333 335 334 346 10 24 52 78 83 82 93 97 96 94 95 99 97 98 108 112 97 74 56 36 172 161 147 142 142
181 210 211 125 234 22 266 329 356 2 310 4 339 293 294 346 356 316 45 351 353 331 329 15 28 348 357 15 44 39 38 61 67 79 88 89 90 84 80 73 77 84 78 65 86 81 77 40 40 47 88 147 181 123
189 324 311 243 167 322 332 347 64 359 356 325 297 14 13 4 4 34 20 329 323 338 20 15 1 43 49 45 48 45 48 65 67 66 71 85 79 76 79 79 77 73 81 89 95 91 78 61 50 42 33 41 41 65
73 336 210 300 335 346 298 342 333 305 289 264 3 113 77 27 52 46 355 329 351 6 17 33 40 32 45 43 51 58 50 66 79 79 72 87 94 88 80 76 76 71 78 102 99 97 95 77 86 143 236 123 54 50
40 85 335 66 284 10 342 310 337 324 291 7 63 92 67 51 45 39 358 327 331 334 341 347 336 3 30 44 76 71 69 61 78 77 80 89 93 99 105 106 103 76 104 111 115 115 108 250 150 83 88 97 119 297
317 35 38 37 357 351 261 244 250 266 284 80 78 61 56 60 44 35 212 287 297 288 289 277 268 68 66 72 83 111 135 124 123 137 162 161 154 152 125 108 102 126 174 174 139 141 142 141 134 138 125 80 93 15
359 331 269 309 211 212 270 250 305 14 358 57 81 88 87 83 166 205 143 229 248 244 251 265 65 50 62 92 108 110 107 103 100 99 95 86 78 75 78 83 75 72 70 37 88 119 137 137 118 100 62 324 9 27
233 197 219 251 199 204 13 38 31 57 68 76 89 82 100 128 151 188 213 219 172 17 350 104 99 92 75 63 75 86 87 88 91 93 92 93 95 97 108 113 119 101 113 95 56 60 47 37 28 12 360 342 335 262
36 180 17 40 50 55 81 100 89 88 89 93 107 112 117 141 166 196 204 169 130 112 75 78 85 81 78 71 65 60 52 52 57 69 77 82 84 83 86 89 94 98 101 115 122 131 158 227 193 219 231 332 14 3
76 101 102 104 102 120 130 130 129 125 117 101 96 97 106 116 115 84 89 86 86 85 85 77 63 53 56 64 74 83 84 76 62 49 55 73 75 71 73 75 79 65 53 34 16 23 31 302 351 346 322 315 307 299
118 104 99 101 109 121 120 117 121 114 95 81 92 101 106 91 84 50 41 86 85 79 58 62 58 56 71 100 90 72 51 50 38 36 25 37 44 16 14 85 91 74 25 335 322 328 352 352 355 2 4 356 355 0
136 111 104 97 93 92 88 81 69 90 101 106 118 106 86 85 62 36 83 47 50 55 57 51 59 88 66 55 94 123 117 106 111 114 101 52 24 357 337 13 15 1 358 351 346 352 360 25 27 29 35 35 44 41